Weather History for Easton, MD

Change the Weather History Date:

Friday, March 29, 2013

  Actual Average Record
Temperature  
Mean Temperature 45 °F -  
Max Temperature 55 °F 62 °F 80 °F (1968)
Min Temperature 35 °F 38 °F 22 °F (1959)
Degree Days  
Heating Degree Days 20    
Moisture  
Dew Point 33 °F    
Average Humidity 70    
Maximum Humidity 86    
Minimum Humidity 41    
Precipitation  
Precipitation 0.00 in - - ()
Sea Level Pressure  
Sea Level Pressure 30.23 in    
Wind  
Wind Speed 4 mph (NW)    
Max Wind Speed 14 mph    
Max Gust Speed 23 mph    
Visibility 10 miles    
Events      
Averages and records for this station are not official NWS values.
T = Trace of Precipitation, MM = Missing Value Source: NWS Daily Summary

Daily Weather History Graph

Daily Weather History Graph

Search for Another Location

Airport:

Trip Planner

Search our weather history database for the weather conditions in past years. The results will help you decide how hot, cold, wet, or windy it might be!

Date:

Astronomy

Mar. 29, 2013 Rise Set
Actual Time 6:53 AM EDT 7:25 PM EDT
Civil Twilight 6:26 AM EDT 7:51 PM EDT
Nautical Twilight 5:55 AM EDT 8:23 PM EDT
Astronomical Twilight 5:22 AM EDT 8:55 PM EDT
Moon 10:20 PM EDT (3/29) 8:02 AM EDT (3/29)
Length of Visible Light 13h 25m
Length of Day
12h 31m
Waning Gibbous, 93% of the Moon is Illuminated
Mar 29
Waning Gibbous
Apr 3
Last Quarter
Apr 10
New
Apr 18
First Quarter
Apr 25
Full

Hourly Weather History & Observations

Time (EDT) Temp. Windchill Dew Point Humidity Pressure Visibility Wind Dir Wind Speed Gust Speed Precip Events Conditions
12:12 AM 40.3 °F 37.1 °F 32.9 °F 75% 30.24 in 10.0 mi NNW 4.6 mph - N/A   Mostly Cloudy
12:32 AM 40.3 °F - 32.5 °F 74% 30.24 in 10.0 mi Calm Calm - N/A   Mostly Cloudy
12:52 AM 39.6 °F - 32.2 °F 75% 30.24 in 10.0 mi Calm Calm - N/A   Scattered Clouds
1:12 AM 39.2 °F 37.0 °F 32.2 °F 76% 30.24 in 10.0 mi NW 3.5 mph - N/A   Scattered Clouds
1:32 AM 39.0 °F 36.8 °F 32.7 °F 78% 30.24 in 10.0 mi NW 3.5 mph - N/A   Clear
1:52 AM 38.3 °F 35.9 °F 32.9 °F 81% 30.24 in 10.0 mi NNW 3.5 mph - N/A   Clear
2:12 AM 38.7 °F 36.3 °F 33.1 °F 80% 30.24 in 10.0 mi NW 3.5 mph - N/A   Clear
2:32 AM 37.6 °F 35.1 °F 32.4 °F 81% 30.24 in 10.0 mi WNW 3.5 mph - N/A   Clear
2:52 AM 37.9 °F - 32.7 °F 81% 30.24 in 10.0 mi Calm Calm - N/A   Clear
3:12 AM 38.1 °F 35.7 °F 32.7 °F 81% 30.24 in 10.0 mi NW 3.5 mph - N/A   Clear
3:32 AM 37.6 °F 35.1 °F 32.2 °F 81% 30.24 in 10.0 mi NW 3.5 mph - N/A   Clear
3:52 AM 37.8 °F 34.2 °F 32.4 °F 81% 30.24 in 10.0 mi NNW 4.6 mph - N/A   Clear
4:12 AM 37.4 °F 33.8 °F 32.4 °F 82% 30.24 in 10.0 mi NW 4.6 mph - N/A   Clear
4:32 AM 38.3 °F 35.9 °F 32.9 °F 81% 30.24 in 10.0 mi NW 3.5 mph - N/A   Clear
4:52 AM 37.8 °F 35.3 °F 32.9 °F 83% 30.24 in 10.0 mi NNW 3.5 mph - N/A   Clear
5:12 AM 37.4 °F - 32.9 °F 84% 30.24 in 10.0 mi Calm Calm - N/A   Clear
5:32 AM 37.4 °F - 32.4 °F 82% 30.24 in 10.0 mi Calm Calm - N/A   Clear
5:52 AM 37.8 °F 35.3 °F 32.4 °F 81% 30.24 in 10.0 mi NW 3.5 mph - N/A   Clear
5:53 AM 37.4 °F - 32.0 °F 81% 30.24 in 10.0 mi Calm Calm - N/A   Clear
6:12 AM 35.8 °F - 32.0 °F 86% 30.24 in 10.0 mi Calm Calm - N/A   Clear
6:32 AM 36.3 °F - 32.0 °F 84% 30.25 in 10.0 mi Calm Calm - N/A   Clear
6:53 AM 36.7 °F - 32.0 °F 83% 30.25 in 10.0 mi Calm Calm - N/A   Clear
7:13 AM 37.4 °F - 31.8 °F 80% 30.26 in 10.0 mi Calm Calm - N/A   Clear
7:33 AM 39.6 °F 36.3 °F 31.6 °F 73% 30.26 in 10.0 mi NW 4.6 mph - N/A   Clear
7:41 AM 39.7 °F 37.6 °F 31.6 °F 73% 30.26 in 10.0 mi NNW 3.5 mph - N/A   Clear
7:53 AM 41.0 °F 37.1 °F 32.0 °F 70% 30.26 in 10.0 mi NW 5.8 mph - N/A   Clear
8:53 AM 46.4 °F 42.4 °F 32.0 °F 57% 30.27 in 10.0 mi NNW 8.1 mph - N/A   Scattered Clouds
9:53 AM 46.4 °F 41.1 °F 30.2 °F 53% 30.27 in 10.0 mi NW 11.5 mph - N/A   Mostly Cloudy
10:56 AM 48.2 °F - 28.4 °F 46% 30.26 in 10.0 mi NW 13.8 mph 23.0 mph N/A   Scattered Clouds
11:53 AM 50.0 °F - 30.2 °F 47% 30.26 in 10.0 mi NW 13.8 mph 20.7 mph N/A   Scattered Clouds
12:50 PM 51.8 °F - 30.2 °F 44% 30.24 in 10.0 mi NNW 11.5 mph 18.4 mph N/A   Scattered Clouds
1:59 PM 55.4 °F - 32.0 °F 41% 30.21 in 10.0 mi NW 10.4 mph 18.4 mph N/A   Scattered Clouds
2:48 PM 55.4 °F - 32.0 °F 41% 30.19 in 10.0 mi NW 12.7 mph 18.4 mph N/A   Overcast
3:55 PM 55.4 °F - 32.0 °F 41% 30.18 in 10.0 mi NW 12.7 mph 21.9 mph N/A   Mostly Cloudy
4:55 PM 53.6 °F - 32.0 °F 44% 30.17 in 10.0 mi NW 6.9 mph 17.3 mph N/A   Mostly Cloudy
5:50 PM 53.6 °F - 30.2 °F 41% 30.18 in 10.0 mi NW 8.1 mph - N/A   Mostly Cloudy
6:47 PM 50.0 °F - 32.0 °F 50% 30.18 in 10.0 mi WNW 6.9 mph - N/A   Scattered Clouds
7:55 PM 46.4 °F - 33.8 °F 62% 30.19 in 10.0 mi Calm Calm - N/A   Clear
8:47 PM 44.6 °F - 33.8 °F 66% 30.21 in 10.0 mi Calm Calm - N/A   Clear
10:54 PM 41.5 °F - 36.5 °F 82% 30.23 in 10.0 mi Calm Calm - N/A   Clear
11:14 PM 42.4 °F - 36.9 °F 81% 30.23 in 10.0 mi Calm Calm - N/A   Scattered Clouds
11:34 PM 42.1 °F - 36.9 °F 82% 30.23 in 10.0 mi Calm Calm - N/A   Clear
11:54 PM 40.6 °F - 36.7 °F 86% 30.23 in 10.0 mi Calm Calm - N/A   Clear